owner,sensor,date,latitude,longitude,air_pressure(mBar),qcFlag 
COMPS,ioos:station:USF.COMPS:BGC:1,2011-03-01T00:00:00Z,26.4040,-81.8810,1017.9,1111122 
COMPS,ioos:station:USF.COMPS:BGC:1,2011-03-01T00:06:00Z,26.4040,-81.8810,1018.13,1111122 
COMPS,ioos:station:USF.COMPS:BGC:1,2011-03-01T00:12:00Z,26.4040,-81.8810,1018.24,1111122 
COMPS,ioos:station:USF.COMPS:BGC:1,2011-03-01T00:18:00Z,26.4040,-81.8810,1018.28,1111122 
COMPS,ioos:station:USF.COMPS:BGC:1,2011-03-01T00:24:00Z,26.4040,-81.8810,1018.37,1111122 
COMPS,ioos:station:USF.COMPS:BGC:1,2011-03-01T00:30:00Z,26.4040,-81.8810,1018.46,1111122 
COMPS,ioos:station:USF.COMPS:BGC:1,2011-03-01T00:36:00Z,26.4040,-81.8810,1018.44,1111122 
COMPS,ioos:station:USF.COMPS:BGC:1,2011-03-01T00:42:00Z,26.4040,-81.8810,1018.37,1111122 
COMPS,ioos:station:USF.COMPS:BGC:1,2011-03-01T00:48:00Z,26.4040,-81.8810,1018.37,1111122 
COMPS,ioos:station:USF.COMPS:BGC:1,2011-03-01T00:54:00Z,26.4040,-81.8810,1018.37,1111122 
COMPS,ioos:station:USF.COMPS:BGC:1,2011-03-01T01:00:00Z,26.4040,-81.8810,1018.4,1111122 
COMPS,ioos:station:USF.COMPS:BGC:1,2011-03-01T02:00:00Z,26.4040,-81.8810,1018.9,1111122 
COMPS,ioos:station:USF.COMPS:BGC:1,2011-03-01T02:06:00Z,26.4040,-81.8810,1018.85,1111122 
COMPS,ioos:station:USF.COMPS:BGC:1,2011-03-01T02:12:00Z,26.4040,-81.8810,1018.86,1111122 
COMPS,ioos:station:USF.COMPS:BGC:1,2011-03-01T02:18:00Z,26.4040,-81.8810,1018.85,1111122 
COMPS,ioos:station:USF.COMPS:BGC:1,2011-03-01T02:24:00Z,26.4040,-81.8810,1018.92,1111122 
COMPS,ioos:station:USF.COMPS:BGC:1,2011-03-01T02:30:00Z,26.4040,-81.8810,1018.96,1111122 
COMPS,ioos:station:USF.COMPS:BGC:1,2011-03-01T02:36:00Z,26.4040,-81.8810,1019.02,1111122 
COMPS,ioos:station:USF.COMPS:BGC:1,2011-03-01T02:42:00Z,26.4040,-81.8810,1019.05,1111122 
COMPS,ioos:station:USF.COMPS:BGC:1,2011-03-01T02:48:00Z,26.4040,-81.8810,1019.05,1111122 
COMPS,ioos:station:USF.COMPS:BGC:1,2011-03-01T02:54:00Z,26.4040,-81.8810,1019.14,1111122 
COMPS,ioos:station:USF.COMPS:BGC:1,2011-03-01T03:00:00Z,26.4040,-81.8810,1019.1,1111122 
COMPS,ioos:station:USF.COMPS:BGC:1,2011-03-01T03:06:00Z,26.4040,-81.8810,1019.26,1111122 
COMPS,ioos:station:USF.COMPS:BGC:1,2011-03-01T03:12:00Z,26.4040,-81.8810,1019.22,1111122 
COMPS,ioos:station:USF.COMPS:BGC:1,2011-03-01T03:18:00Z,26.4040,-81.8810,1019.2,1111122 
COMPS,ioos:station:USF.COMPS:BGC:1,2011-03-01T03:24:00Z,26.4040,-81.8810,1019.2,1111122 
COMPS,ioos:station:USF.COMPS:BGC:1,2011-03-01T03:30:00Z,26.4040,-81.8810,1019.17,1111122 
COMPS,ioos:station:USF.COMPS:BGC:1,2011-03-01T03:36:00Z,26.4040,-81.8810,1019.14,1111122 
COMPS,ioos:station:USF.COMPS:BGC:1,2011-03-01T03:42:00Z,26.4040,-81.8810,1019.16,1111122 
COMPS,ioos:station:USF.COMPS:BGC:1,2011-03-01T03:48:00Z,26.4040,-81.8810,1019.18,1111122 
COMPS,ioos:station:USF.COMPS:BGC:1,2011-03-01T03:54:00Z,26.4040,-81.8810,1019.21,1111122 
COMPS,ioos:station:USF.COMPS:BGC:1,2011-03-01T04:00:00Z,26.4040,-81.8810,1019.2,1111122 
COMPS,ioos:station:USF.COMPS:BGC:1,2011-03-01T05:00:00Z,26.4040,-81.8810,1019.1,1111122 
COMPS,ioos:station:USF.COMPS:BGC:1,2011-03-01T05:06:00Z,26.4040,-81.8810,1018.94,1111122 
COMPS,ioos:station:USF.COMPS:BGC:1,2011-03-01T05:12:00Z,26.4040,-81.8810,1018.94,1111122 
COMPS,ioos:station:USF.COMPS:BGC:1,2011-03-01T05:18:00Z,26.4040,-81.8810,1018.88,1111122 
COMPS,ioos:station:USF.COMPS:BGC:1,2011-03-01T05:24:00Z,26.4040,-81.8810,1018.85,1111122 
COMPS,ioos:station:USF.COMPS:BGC:1,2011-03-01T05:30:00Z,26.4040,-81.8810,1018.85,1111122 
COMPS,ioos:station:USF.COMPS:BGC:1,2011-03-01T05:36:00Z,26.4040,-81.8810,1018.84,1111122 
COMPS,ioos:station:USF.COMPS:BGC:1,2011-03-01T05:42:00Z,26.4040,-81.8810,1018.88,1111122 
COMPS,ioos:station:USF.COMPS:BGC:1,2011-03-01T05:48:00Z,26.4040,-81.8810,1018.88,1111122 
COMPS,ioos:station:USF.COMPS:BGC:1,2011-03-01T05:54:00Z,26.4040,-81.8810,1018.84,1111122 
COMPS,ioos:station:USF.COMPS:BGC:1,2011-03-01T06:00:00Z,26.4040,-81.8810,1018.8,1111122 
COMPS,ioos:station:USF.COMPS:BGC:1,2011-03-01T07:00:00Z,26.4040,-81.8810,1018.3,1111122 
COMPS,ioos:station:USF.COMPS:BGC:1,2011-03-01T07:06:00Z,26.4040,-81.8810,1018.25,1111122 
COMPS,ioos:station:USF.COMPS:BGC:1,2011-03-01T07:12:00Z,26.4040,-81.8810,1018.25,1111122 
COMPS,ioos:station:USF.COMPS:BGC:1,2011-03-01T07:18:00Z,26.4040,-81.8810,1018.24,1111122 
COMPS,ioos:station:USF.COMPS:BGC:1,2011-03-01T07:24:00Z,26.4040,-81.8810,1018.2,1111122 
COMPS,ioos:station:USF.COMPS:BGC:1,2011-03-01T07:30:00Z,26.4040,-81.8810,1017.97,1111122 
COMPS,ioos:station:USF.COMPS:BGC:1,2011-03-01T07:36:00Z,26.4040,-81.8810,1017.62,1111122 
COMPS,ioos:station:USF.COMPS:BGC:1,2011-03-01T07:42:00Z,26.4040,-81.8810,1017.49,1111122 
COMPS,ioos:station:USF.COMPS:BGC:1,2011-03-01T07:48:00Z,26.4040,-81.8810,1017.66,1111122 
COMPS,ioos:station:USF.COMPS:BGC:1,2011-03-01T07:54:00Z,26.4040,-81.8810,1017.72,1111122 
COMPS,ioos:station:USF.COMPS:BGC:1,2011-03-01T08:00:00Z,26.4040,-81.8810,1017.7,1111122 
COMPS,ioos:station:USF.COMPS:BGC:1,2011-03-01T08:06:00Z,26.4040,-81.8810,1017.69,1111122 
COMPS,ioos:station:USF.COMPS:BGC:1,2011-03-01T08:12:00Z,26.4040,-81.8810,1017.7,1111122 
COMPS,ioos:station:USF.COMPS:BGC:1,2011-03-01T08:18:00Z,26.4040,-81.8810,1017.78,1111122 
COMPS,ioos:station:USF.COMPS:BGC:1,2011-03-01T08:24:00Z,26.4040,-81.8810,1017.62,1111122 
COMPS,ioos:station:USF.COMPS:BGC:1,2011-03-01T08:30:00Z,26.4040,-81.8810,1017.52,1111122 
COMPS,ioos:station:USF.COMPS:BGC:1,2011-03-01T08:36:00Z,26.4040,-81.8810,1017.37,1111122 
COMPS,ioos:station:USF.COMPS:BGC:1,2011-03-01T08:42:00Z,26.4040,-81.8810,1017.18,1111122 
COMPS,ioos:station:USF.COMPS:BGC:1,2011-03-01T08:48:00Z,26.4040,-81.8810,1017.1,1111122 
COMPS,ioos:station:USF.COMPS:BGC:1,2011-03-01T08:54:00Z,26.4040,-81.8810,1017.16,1111122 
COMPS,ioos:station:USF.COMPS:BGC:1,2011-03-01T09:00:00Z,26.4040,-81.8810,1017.2,1111122 
COMPS,ioos:station:USF.COMPS:BGC:1,2011-03-01T09:06:00Z,26.4040,-81.8810,1017.14,1111122 
COMPS,ioos:station:USF.COMPS:BGC:1,2011-03-01T09:12:00Z,26.4040,-81.8810,1017.08,1111122 
COMPS,ioos:station:USF.COMPS:BGC:1,2011-03-01T09:18:00Z,26.4040,-81.8810,1017.0,1111122 
COMPS,ioos:station:USF.COMPS:BGC:1,2011-03-01T09:24:00Z,26.4040,-81.8810,1017.01,1111122 
COMPS,ioos:station:USF.COMPS:BGC:1,2011-03-01T09:30:00Z,26.4040,-81.8810,1017.08,1111122 
COMPS,ioos:station:USF.COMPS:BGC:1,2011-03-01T09:36:00Z,26.4040,-81.8810,1017.06,1111122 
COMPS,ioos:station:USF.COMPS:BGC:1,2011-03-01T09:42:00Z,26.4040,-81.8810,1017.13,1111122 
COMPS,ioos:station:USF.COMPS:BGC:1,2011-03-01T09:48:00Z,26.4040,-81.8810,1017.1,1111122 
COMPS,ioos:station:USF.COMPS:BGC:1,2011-03-01T09:54:00Z,26.4040,-81.8810,1017.14,1111122 
COMPS,ioos:station:USF.COMPS:BGC:1,2011-03-01T10:00:00Z,26.4040,-81.8810,1017.1,1111122 
COMPS,ioos:station:USF.COMPS:BGC:1,2011-03-01T10:06:00Z,26.4040,-81.8810,1017.13,1111122 
COMPS,ioos:station:USF.COMPS:BGC:1,2011-03-01T10:12:00Z,26.4040,-81.8810,1017.13,1111122 
COMPS,ioos:station:USF.COMPS:BGC:1,2011-03-01T10:18:00Z,26.4040,-81.8810,1017.13,1111122 
COMPS,ioos:station:USF.COMPS:BGC:1,2011-03-01T10:24:00Z,26.4040,-81.8810,1017.16,1111122 
COMPS,ioos:station:USF.COMPS:BGC:1,2011-03-01T10:30:00Z,26.4040,-81.8810,1017.2,1111122 
COMPS,ioos:station:USF.COMPS:BGC:1,2011-03-01T10:36:00Z,26.4040,-81.8810,1017.18,1111122 
COMPS,ioos:station:USF.COMPS:BGC:1,2011-03-01T10:42:00Z,26.4040,-81.8810,1017.2,1111122 
COMPS,ioos:station:USF.COMPS:BGC:1,2011-03-01T10:48:00Z,26.4040,-81.8810,1017.29,1111122 
COMPS,ioos:station:USF.COMPS:BGC:1,2011-03-01T10:54:00Z,26.4040,-81.8810,1017.34,1111122 
COMPS,ioos:station:USF.COMPS:BGC:1,2011-03-01T11:00:00Z,26.4040,-81.8810,1017.3,1111122 
COMPS,ioos:station:USF.COMPS:BGC:1,2011-03-01T11:06:00Z,26.4040,-81.8810,1017.4,1111122 
COMPS,ioos:station:USF.COMPS:BGC:1,2011-03-01T11:12:00Z,26.4040,-81.8810,1017.38,1111122 
COMPS,ioos:station:USF.COMPS:BGC:1,2011-03-01T11:18:00Z,26.4040,-81.8810,1017.3,1111122 
COMPS,ioos:station:USF.COMPS:BGC:1,2011-03-01T11:24:00Z,26.4040,-81.8810,1017.34,1111122 
COMPS,ioos:station:USF.COMPS:BGC:1,2011-03-01T11:30:00Z,26.4040,-81.8810,1017.28,1111122 
COMPS,ioos:station:USF.COMPS:BGC:1,2011-03-01T11:36:00Z,26.4040,-81.8810,1017.45,1111122 
COMPS,ioos:station:USF.COMPS:BGC:1,2011-03-01T11:42:00Z,26.4040,-81.8810,1017.61,1111122 
COMPS,ioos:station:USF.COMPS:BGC:1,2011-03-01T11:48:00Z,26.4040,-81.8810,1017.74,1111122 
COMPS,ioos:station:USF.COMPS:BGC:1,2011-03-01T11:54:00Z,26.4040,-81.8810,1017.84,1111122 
COMPS,ioos:station:USF.COMPS:BGC:1,2011-03-01T12:00:00Z,26.4040,-81.8810,1017.8,1111122 
COMPS,ioos:station:USF.COMPS:BGC:1,2011-03-01T13:00:00Z,26.4040,-81.8810,1018.4,1111122 
COMPS,ioos:station:USF.COMPS:BGC:1,2011-03-01T13:06:00Z,26.4040,-81.8810,1018.62,1111122 
COMPS,ioos:station:USF.COMPS:BGC:1,2011-03-01T13:12:00Z,26.4040,-81.8810,1018.7,1111122 
COMPS,ioos:station:USF.COMPS:BGC:1,2011-03-01T13:18:00Z,26.4040,-81.8810,1018.69,1111122 
COMPS,ioos:station:USF.COMPS:BGC:1,2011-03-01T13:24:00Z,26.4040,-81.8810,1018.72,1111122 
COMPS,ioos:station:USF.COMPS:BGC:1,2011-03-01T13:30:00Z,26.4040,-81.8810,1018.82,1111122 
COMPS,ioos:station:USF.COMPS:BGC:1,2011-03-01T13:36:00Z,26.4040,-81.8810,1018.92,1111122 
COMPS,ioos:station:USF.COMPS:BGC:1,2011-03-01T13:42:00Z,26.4040,-81.8810,1019.05,1111122 
COMPS,ioos:station:USF.COMPS:BGC:1,2011-03-01T13:48:00Z,26.4040,-81.8810,1019.1,1111122 
COMPS,ioos:station:USF.COMPS:BGC:1,2011-03-01T13:54:00Z,26.4040,-81.8810,1019.1,1111122 
COMPS,ioos:station:USF.COMPS:BGC:1,2011-03-01T14:00:00Z,26.4040,-81.8810,1019.1,1111122 
COMPS,ioos:station:USF.COMPS:BGC:1,2011-03-01T15:00:00Z,26.4040,-81.8810,1019.1,1111122 
COMPS,ioos:station:USF.COMPS:BGC:1,2011-03-01T15:06:00Z,26.4040,-81.8810,1019.12,1111122 
COMPS,ioos:station:USF.COMPS:BGC:1,2011-03-01T15:12:00Z,26.4040,-81.8810,1019.2,1111122 
COMPS,ioos:station:USF.COMPS:BGC:1,2011-03-01T15:18:00Z,26.4040,-81.8810,1019.21,1111122 
COMPS,ioos:station:USF.COMPS:BGC:1,2011-03-01T15:24:00Z,26.4040,-81.8810,1019.24,1111122 
COMPS,ioos:station:USF.COMPS:BGC:1,2011-03-01T15:30:00Z,26.4040,-81.8810,1019.34,1111122 
COMPS,ioos:station:USF.COMPS:BGC:1,2011-03-01T15:36:00Z,26.4040,-81.8810,1019.3,1111122 
COMPS,ioos:station:USF.COMPS:BGC:1,2011-03-01T15:42:00Z,26.4040,-81.8810,1019.2,1111122 
COMPS,ioos:station:USF.COMPS:BGC:1,2011-03-01T15:48:00Z,26.4040,-81.8810,1019.21,1111122 
COMPS,ioos:station:USF.COMPS:BGC:1,2011-03-01T15:54:00Z,26.4040,-81.8810,1019.29,1111122 
COMPS,ioos:station:USF.COMPS:BGC:1,2011-03-01T16:00:00Z,26.4040,-81.8810,1019.3,1111122 
COMPS,ioos:station:USF.COMPS:BGC:1,2011-03-01T16:06:00Z,26.4040,-81.8810,1019.2,1111122 
COMPS,ioos:station:USF.COMPS:BGC:1,2011-03-01T16:12:00Z,26.4040,-81.8810,1019.17,1111122 
COMPS,ioos:station:USF.COMPS:BGC:1,2011-03-01T16:18:00Z,26.4040,-81.8810,1019.17,1111122 
COMPS,ioos:station:USF.COMPS:BGC:1,2011-03-01T16:24:00Z,26.4040,-81.8810,1019.18,1111122 
COMPS,ioos:station:USF.COMPS:BGC:1,2011-03-01T16:30:00Z,26.4040,-81.8810,1019.06,1111122 
COMPS,ioos:station:USF.COMPS:BGC:1,2011-03-01T16:36:00Z,26.4040,-81.8810,1018.94,1111122 
COMPS,ioos:station:USF.COMPS:BGC:1,2011-03-01T16:42:00Z,26.4040,-81.8810,1018.92,1111122 
COMPS,ioos:station:USF.COMPS:BGC:1,2011-03-01T16:48:00Z,26.4040,-81.8810,1018.86,1111122 
COMPS,ioos:station:USF.COMPS:BGC:1,2011-03-01T16:54:00Z,26.4040,-81.8810,1018.85,1111122 
COMPS,ioos:station:USF.COMPS:BGC:1,2011-03-01T17:00:00Z,26.4040,-81.8810,1018.9,1111122 
COMPS,ioos:station:USF.COMPS:BGC:1,2011-03-01T18:00:00Z,26.4040,-81.8810,1018.2,1111122 
COMPS,ioos:station:USF.COMPS:BGC:1,2011-03-01T18:06:00Z,26.4040,-81.8810,1018.08,1111122 
COMPS,ioos:station:USF.COMPS:BGC:1,2011-03-01T18:12:00Z,26.4040,-81.8810,1017.93,1111122 
COMPS,ioos:station:USF.COMPS:BGC:1,2011-03-01T18:18:00Z,26.4040,-81.8810,1017.84,1111122 
COMPS,ioos:station:USF.COMPS:BGC:1,2011-03-01T18:24:00Z,26.4040,-81.8810,1017.76,1111122 
COMPS,ioos:station:USF.COMPS:BGC:1,2011-03-01T18:30:00Z,26.4040,-81.8810,1017.74,1111122 
COMPS,ioos:station:USF.COMPS:BGC:1,2011-03-01T18:36:00Z,26.4040,-81.8810,1017.64,1111122 
COMPS,ioos:station:USF.COMPS:BGC:1,2011-03-01T18:42:00Z,26.4040,-81.8810,1017.56,1111122 
COMPS,ioos:station:USF.COMPS:BGC:1,2011-03-01T18:48:00Z,26.4040,-81.8810,1017.5,1111122 
COMPS,ioos:station:USF.COMPS:BGC:1,2011-03-01T18:54:00Z,26.4040,-81.8810,1017.4,1111122 
COMPS,ioos:station:USF.COMPS:BGC:1,2011-03-01T19:00:00Z,26.4040,-81.8810,1017.4,1111122 
COMPS,ioos:station:USF.COMPS:BGC:1,2011-03-01T20:00:00Z,26.4040,-81.8810,1016.9,1111122 
COMPS,ioos:station:USF.COMPS:BGC:1,2011-03-01T20:06:00Z,26.4040,-81.8810,1016.82,1111122 
COMPS,ioos:station:USF.COMPS:BGC:1,2011-03-01T20:12:00Z,26.4040,-81.8810,1016.84,1111122 
COMPS,ioos:station:USF.COMPS:BGC:1,2011-03-01T20:18:00Z,26.4040,-81.8810,1016.82,1111122 
COMPS,ioos:station:USF.COMPS:BGC:1,2011-03-01T20:24:00Z,26.4040,-81.8810,1016.85,1111122 
COMPS,ioos:station:USF.COMPS:BGC:1,2011-03-01T20:30:00Z,26.4040,-81.8810,1016.9,1111122 
COMPS,ioos:station:USF.COMPS:BGC:1,2011-03-01T20:36:00Z,26.4040,-81.8810,1016.88,1111122 
COMPS,ioos:station:USF.COMPS:BGC:1,2011-03-01T20:42:00Z,26.4040,-81.8810,1016.96,1111122 
COMPS,ioos:station:USF.COMPS:BGC:1,2011-03-01T20:48:00Z,26.4040,-81.8810,1017.13,1111122 
COMPS,ioos:station:USF.COMPS:BGC:1,2011-03-01T20:54:00Z,26.4040,-81.8810,1017.04,1111122 
COMPS,ioos:station:USF.COMPS:BGC:1,2011-03-01T21:00:00Z,26.4040,-81.8810,1017.0,1111122 
COMPS,ioos:station:USF.COMPS:BGC:1,2011-03-01T22:00:00Z,26.4040,-81.8810,1016.7,1111122 
COMPS,ioos:station:USF.COMPS:BGC:1,2011-03-01T22:06:00Z,26.4040,-81.8810,1016.86,1111122 
COMPS,ioos:station:USF.COMPS:BGC:1,2011-03-01T22:12:00Z,26.4040,-81.8810,1016.92,1111122 
COMPS,ioos:station:USF.COMPS:BGC:1,2011-03-01T22:18:00Z,26.4040,-81.8810,1017.01,1111122 
COMPS,ioos:station:USF.COMPS:BGC:1,2011-03-01T22:24:00Z,26.4040,-81.8810,1017.05,1111122 
COMPS,ioos:station:USF.COMPS:BGC:1,2011-03-01T22:30:00Z,26.4040,-81.8810,1017.1,1111122 
COMPS,ioos:station:USF.COMPS:BGC:1,2011-03-01T22:36:00Z,26.4040,-81.8810,1017.1,1111122 
COMPS,ioos:station:USF.COMPS:BGC:1,2011-03-01T22:42:00Z,26.4040,-81.8810,1017.1,1111122 
COMPS,ioos:station:USF.COMPS:BGC:1,2011-03-01T22:48:00Z,26.4040,-81.8810,1017.14,1111122 
COMPS,ioos:station:USF.COMPS:BGC:1,2011-03-01T22:54:00Z,26.4040,-81.8810,1017.14,1111122 
COMPS,ioos:station:USF.COMPS:BGC:1,2011-03-01T23:00:00Z,26.4040,-81.8810,1017.1,1111122 
COMPS,ioos:station:USF.COMPS:BGC:1,2011-03-02T00:00:00Z,26.4040,-81.8810,1017.6,1111122 
COMPS,ioos:station:USF.COMPS:BGC:1,2011-03-02T00:06:00Z,26.4040,-81.8810,1017.74,1111122 
COMPS,ioos:station:USF.COMPS:BGC:1,2011-03-02T00:12:00Z,26.4040,-81.8810,1017.74,1111122 
COMPS,ioos:station:USF.COMPS:BGC:1,2011-03-02T00:18:00Z,26.4040,-81.8810,1017.78,1111122 
COMPS,ioos:station:USF.COMPS:BGC:1,2011-03-02T00:24:00Z,26.4040,-81.8810,1017.78,1111122 
COMPS,ioos:station:USF.COMPS:BGC:1,2011-03-02T00:30:00Z,26.4040,-81.8810,1017.8,1111122 
COMPS,ioos:station:USF.COMPS:BGC:1,2011-03-02T00:36:00Z,26.4040,-81.8810,1017.85,1111122 
COMPS,ioos:station:USF.COMPS:BGC:1,2011-03-02T00:42:00Z,26.4040,-81.8810,1017.86,1111122 
COMPS,ioos:station:USF.COMPS:BGC:1,2011-03-02T00:48:00Z,26.4040,-81.8810,1017.9,1111122 
COMPS,ioos:station:USF.COMPS:BGC:1,2011-03-02T00:54:00Z,26.4040,-81.8810,1018.0,1111122 
COMPS,ioos:station:USF.COMPS:BGC:1,2011-03-02T01:00:00Z,26.4040,-81.8810,1018.0,1111122 
COMPS,ioos:station:USF.COMPS:BGC:1,2011-03-02T02:00:00Z,26.4040,-81.8810,1018.6,1111122 
COMPS,ioos:station:USF.COMPS:BGC:1,2011-03-02T02:06:00Z,26.4040,-81.8810,1018.46,1111122 
COMPS,ioos:station:USF.COMPS:BGC:1,2011-03-02T02:12:00Z,26.4040,-81.8810,1018.78,1111122 
COMPS,ioos:station:USF.COMPS:BGC:1,2011-03-02T02:18:00Z,26.4040,-81.8810,1018.89,1111122 
COMPS,ioos:station:USF.COMPS:BGC:1,2011-03-02T02:24:00Z,26.4040,-81.8810,1019.05,1111122 
COMPS,ioos:station:USF.COMPS:BGC:1,2011-03-02T02:30:00Z,26.4040,-81.8810,1019.1,1111122 
COMPS,ioos:station:USF.COMPS:BGC:1,2011-03-02T02:36:00Z,26.4040,-81.8810,1019.1,1111122 
COMPS,ioos:station:USF.COMPS:BGC:1,2011-03-02T02:42:00Z,26.4040,-81.8810,1019.1,1111122 
COMPS,ioos:station:USF.COMPS:BGC:1,2011-03-02T02:48:00Z,26.4040,-81.8810,1019.16,1111122 
COMPS,ioos:station:USF.COMPS:BGC:1,2011-03-02T02:54:00Z,26.4040,-81.8810,1019.06,1111122 
COMPS,ioos:station:USF.COMPS:BGC:1,2011-03-02T03:00:00Z,26.4040,-81.8810,1019.1,1111122 
COMPS,ioos:station:USF.COMPS:BGC:1,2011-03-02T04:00:00Z,26.4040,-81.8810,1019.2,1111122 
COMPS,ioos:station:USF.COMPS:BGC:1,2011-03-02T05:00:00Z,26.4040,-81.8810,1018.9,1111122 
COMPS,ioos:station:USF.COMPS:BGC:1,2011-03-02T05:06:00Z,26.4040,-81.8810,1018.89,1111122 
COMPS,ioos:station:USF.COMPS:BGC:1,2011-03-02T05:12:00Z,26.4040,-81.8810,1018.77,1111122 
COMPS,ioos:station:USF.COMPS:BGC:1,2011-03-02T05:18:00Z,26.4040,-81.8810,1018.74,1111122 
COMPS,ioos:station:USF.COMPS:BGC:1,2011-03-02T05:24:00Z,26.4040,-81.8810,1018.72,1111122 
COMPS,ioos:station:USF.COMPS:BGC:1,2011-03-02T05:30:00Z,26.4040,-81.8810,1018.6,1111122 
COMPS,ioos:station:USF.COMPS:BGC:1,2011-03-02T05:36:00Z,26.4040,-81.8810,1018.52,1111122 
COMPS,ioos:station:USF.COMPS:BGC:1,2011-03-02T05:42:00Z,26.4040,-81.8810,1018.6,1111122 
COMPS,ioos:station:USF.COMPS:BGC:1,2011-03-02T05:48:00Z,26.4040,-81.8810,1018.33,1111122 
COMPS,ioos:station:USF.COMPS:BGC:1,2011-03-02T05:54:00Z,26.4040,-81.8810,1018.29,1111122 
COMPS,ioos:station:USF.COMPS:BGC:1,2011-03-02T06:00:00Z,26.4040,-81.8810,1018.3,1111122 
COMPS,ioos:station:USF.COMPS:BGC:1,2011-03-02T06:06:00Z,26.4040,-81.8810,1018.22,1111122 
COMPS,ioos:station:USF.COMPS:BGC:1,2011-03-02T06:12:00Z,26.4040,-81.8810,1018.3,1111122 
COMPS,ioos:station:USF.COMPS:BGC:1,2011-03-02T06:18:00Z,26.4040,-81.8810,1018.33,1111122 
COMPS,ioos:station:USF.COMPS:BGC:1,2011-03-02T06:24:00Z,26.4040,-81.8810,1018.28,1111122 
COMPS,ioos:station:USF.COMPS:BGC:1,2011-03-02T06:30:00Z,26.4040,-81.8810,1018.28,1111122 
COMPS,ioos:station:USF.COMPS:BGC:1,2011-03-02T06:36:00Z,26.4040,-81.8810,1018.21,1111122 
COMPS,ioos:station:USF.COMPS:BGC:1,2011-03-02T06:42:00Z,26.4040,-81.8810,1018.21,1111122 
COMPS,ioos:station:USF.COMPS:BGC:1,2011-03-02T06:48:00Z,26.4040,-81.8810,1018.21,1111122 
COMPS,ioos:station:USF.COMPS:BGC:1,2011-03-02T06:54:00Z,26.4040,-81.8810,1018.28,1111122 
COMPS,ioos:station:USF.COMPS:BGC:1,2011-03-02T07:00:00Z,26.4040,-81.8810,1018.3,1111122 
COMPS,ioos:station:USF.COMPS:BGC:1,2011-03-02T07:06:00Z,26.4040,-81.8810,1018.13,1111122 
COMPS,ioos:station:USF.COMPS:BGC:1,2011-03-02T07:12:00Z,26.4040,-81.8810,1018.04,1111122 
COMPS,ioos:station:USF.COMPS:BGC:1,2011-03-02T07:18:00Z,26.4040,-81.8810,1017.93,1111122 
COMPS,ioos:station:USF.COMPS:BGC:1,2011-03-02T07:24:00Z,26.4040,-81.8810,1017.89,1111122 
COMPS,ioos:station:USF.COMPS:BGC:1,2011-03-02T07:30:00Z,26.4040,-81.8810,1017.85,1111122 
COMPS,ioos:station:USF.COMPS:BGC:1,2011-03-02T07:36:00Z,26.4040,-81.8810,1017.84,1111122 
COMPS,ioos:station:USF.COMPS:BGC:1,2011-03-02T07:42:00Z,26.4040,-81.8810,1017.8,1111122 
COMPS,ioos:station:USF.COMPS:BGC:1,2011-03-02T07:48:00Z,26.4040,-81.8810,1017.85,1111122 
COMPS,ioos:station:USF.COMPS:BGC:1,2011-03-02T07:54:00Z,26.4040,-81.8810,1017.8,1111122 
COMPS,ioos:station:USF.COMPS:BGC:1,2011-03-02T08:00:00Z,26.4040,-81.8810,1017.8,1111122 
COMPS,ioos:station:USF.COMPS:BGC:1,2011-03-02T09:00:00Z,26.4040,-81.8810,1017.5,1111122 
COMPS,ioos:station:USF.COMPS:BGC:1,2011-03-02T09:06:00Z,26.4040,-81.8810,1017.5,1111122 
COMPS,ioos:station:USF.COMPS:BGC:1,2011-03-02T09:12:00Z,26.4040,-81.8810,1017.53,1111122 
COMPS,ioos:station:USF.COMPS:BGC:1,2011-03-02T09:18:00Z,26.4040,-81.8810,1017.65,1111122 
COMPS,ioos:station:USF.COMPS:BGC:1,2011-03-02T09:24:00Z,26.4040,-81.8810,1017.73,1111122 
COMPS,ioos:station:USF.COMPS:BGC:1,2011-03-02T09:30:00Z,26.4040,-81.8810,1017.73,1111122 
COMPS,ioos:station:USF.COMPS:BGC:1,2011-03-02T09:36:00Z,26.4040,-81.8810,1017.74,1111122 
COMPS,ioos:station:USF.COMPS:BGC:1,2011-03-02T09:42:00Z,26.4040,-81.8810,1017.74,1111122 
COMPS,ioos:station:USF.COMPS:BGC:1,2011-03-02T09:48:00Z,26.4040,-81.8810,1017.76,1111122 
COMPS,ioos:station:USF.COMPS:BGC:1,2011-03-02T09:54:00Z,26.4040,-81.8810,1017.8,1111122 
COMPS,ioos:station:USF.COMPS:BGC:1,2011-03-02T10:00:00Z,26.4040,-81.8810,1017.8,1111122 
COMPS,ioos:station:USF.COMPS:BGC:1,2011-03-02T10:06:00Z,26.4040,-81.8810,1017.94,1111122 
COMPS,ioos:station:USF.COMPS:BGC:1,2011-03-02T10:12:00Z,26.4040,-81.8810,1018.08,1111122 
COMPS,ioos:station:USF.COMPS:BGC:1,2011-03-02T10:18:00Z,26.4040,-81.8810,1018.13,1111122 
COMPS,ioos:station:USF.COMPS:BGC:1,2011-03-02T10:24:00Z,26.4040,-81.8810,1018.2,1111122 
COMPS,ioos:station:USF.COMPS:BGC:1,2011-03-02T10:30:00Z,26.4040,-81.8810,1018.22,1111122 
COMPS,ioos:station:USF.COMPS:BGC:1,2011-03-02T10:36:00Z,26.4040,-81.8810,1018.25,1111122 
COMPS,ioos:station:USF.COMPS:BGC:1,2011-03-02T10:42:00Z,26.4040,-81.8810,1018.24,1111122 
COMPS,ioos:station:USF.COMPS:BGC:1,2011-03-02T10:48:00Z,26.4040,-81.8810,1018.24,1111122 
COMPS,ioos:station:USF.COMPS:BGC:1,2011-03-02T10:54:00Z,26.4040,-81.8810,1018.25,1111122 
COMPS,ioos:station:USF.COMPS:BGC:1,2011-03-02T11:00:00Z,26.4040,-81.8810,1018.3,1111122 
COMPS,ioos:station:USF.COMPS:BGC:1,2011-03-02T11:06:00Z,26.4040,-81.8810,1018.36,1111122 
COMPS,ioos:station:USF.COMPS:BGC:1,2011-03-02T11:12:00Z,26.4040,-81.8810,1018.45,1111122 
COMPS,ioos:station:USF.COMPS:BGC:1,2011-03-02T11:18:00Z,26.4040,-81.8810,1018.61,1111122 
COMPS,ioos:station:USF.COMPS:BGC:1,2011-03-02T11:24:00Z,26.4040,-81.8810,1018.72,1111122 
COMPS,ioos:station:USF.COMPS:BGC:1,2011-03-02T11:30:00Z,26.4040,-81.8810,1018.78,1111122 
COMPS,ioos:station:USF.COMPS:BGC:1,2011-03-02T11:36:00Z,26.4040,-81.8810,1018.86,1111122 
COMPS,ioos:station:USF.COMPS:BGC:1,2011-03-02T11:42:00Z,26.4040,-81.8810,1018.89,1111122 
COMPS,ioos:station:USF.COMPS:BGC:1,2011-03-02T11:48:00Z,26.4040,-81.8810,1018.85,1111122 
COMPS,ioos:station:USF.COMPS:BGC:1,2011-03-02T11:54:00Z,26.4040,-81.8810,1018.92,1111122 
COMPS,ioos:station:USF.COMPS:BGC:1,2011-03-02T12:00:00Z,26.4040,-81.8810,1018.9,1111122 
COMPS,ioos:station:USF.COMPS:BGC:1,2011-03-02T13:00:00Z,26.4040,-81.8810,1019.6,1111122 
COMPS,ioos:station:USF.COMPS:BGC:1,2011-03-02T13:06:00Z,26.4040,-81.8810,1019.7,1111122 
COMPS,ioos:station:USF.COMPS:BGC:1,2011-03-02T13:12:00Z,26.4040,-81.8810,1019.76,1111122 
COMPS,ioos:station:USF.COMPS:BGC:1,2011-03-02T13:18:00Z,26.4040,-81.8810,1019.8,1111122 
COMPS,ioos:station:USF.COMPS:BGC:1,2011-03-02T13:24:00Z,26.4040,-81.8810,1019.94,1111122 
COMPS,ioos:station:USF.COMPS:BGC:1,2011-03-02T13:30:00Z,26.4040,-81.8810,1019.97,1111122 
COMPS,ioos:station:USF.COMPS:BGC:1,2011-03-02T13:36:00Z,26.4040,-81.8810,1020.01,1111122 
COMPS,ioos:station:USF.COMPS:BGC:1,2011-03-02T13:42:00Z,26.4040,-81.8810,1020.0,1111122 
COMPS,ioos:station:USF.COMPS:BGC:1,2011-03-02T13:48:00Z,26.4040,-81.8810,1020.01,1111122 
COMPS,ioos:station:USF.COMPS:BGC:1,2011-03-02T13:54:00Z,26.4040,-81.8810,1020.09,1111122 
COMPS,ioos:station:USF.COMPS:BGC:1,2011-03-02T14:00:00Z,26.4040,-81.8810,1020.1,1111122 
COMPS,ioos:station:USF.COMPS:BGC:1,2011-03-02T15:00:00Z,26.4040,-81.8810,1020.5,1111122 
COMPS,ioos:station:USF.COMPS:BGC:1,2011-03-02T16:00:00Z,26.4040,-81.8810,1020.3,1111122 
COMPS,ioos:station:USF.COMPS:BGC:1,2011-03-02T18:00:00Z,26.4040,-81.8810,1018.9,1111122 
COMPS,ioos:station:USF.COMPS:BGC:1,2011-03-02T18:06:00Z,26.4040,-81.8810,1018.76,1111122 
COMPS,ioos:station:USF.COMPS:BGC:1,2011-03-02T18:12:00Z,26.4040,-81.8810,1018.69,1111122 
COMPS,ioos:station:USF.COMPS:BGC:1,2011-03-02T18:18:00Z,26.4040,-81.8810,1018.5,1111122 
COMPS,ioos:station:USF.COMPS:BGC:1,2011-03-02T18:24:00Z,26.4040,-81.8810,1018.3,1111122 
COMPS,ioos:station:USF.COMPS:BGC:1,2011-03-02T18:30:00Z,26.4040,-81.8810,1018.29,1111122 
COMPS,ioos:station:USF.COMPS:BGC:1,2011-03-02T18:36:00Z,26.4040,-81.8810,1018.28,1111122 
COMPS,ioos:station:USF.COMPS:BGC:1,2011-03-02T18:42:00Z,26.4040,-81.8810,1018.24,1111122 
COMPS,ioos:station:USF.COMPS:BGC:1,2011-03-02T18:48:00Z,26.4040,-81.8810,1018.08,1111122 